Temp
16 16 17 18 15 14 16 19 22 24 22 23 24 23 17 16 17 17 16 16 16 17 16 16 16 16 16 15 15 14 14 15 15 15 15 15 15 15 14 14 14 14 14 14 14 14 15 15 15
15 16 18 18 15 16 17 19 21 21 22 23 22 20 18 15 16 15 15 16 17 16 15 16 16 16 16 15 14 14 14 14 14 14 14 14 14 14 14 14 14 14 14 14 14 14 14 14 14
14 15 15 13 13 16 19 22 19 21 22 23 21 20 18 15 15 15 16 15 17 16 15 15 15 15 15 15 14 14 14 14 14 14 14 14 14 13 13 13 13 13 13 13 13 13 13 14 14
13 15 15 15 15 18 20 20 20 20 22 22 20 16 17 16 16 17 15 16 16 15 15 15 15 15 15 14 14 14 14 14 14 13 13 13 13 13 13 13 13 13 13 13 13 13 13 13 14
13 14 13 14 16 18 20 20 21 20 21 21 20 15 15 16 16 15 15 15 16 15 14 15 15 15 14 14 14 14 14 14 13 13 13 13 13 13 12 12 12 12 12 13 13 13 13 13 13
13 13 13 14 16 18 21 23 22 20 21 20 17 16 15 15 16 15 15 16 16 15 14 15 14 14 14 14 13 13 13 13 13 13 12 12 12 12 12 12 12 12 12 12 13 13 13 12 13
12 12 13 15 17 17 21 22 20 19 20 19 18 14 15 15 16 16 15 15 15 15 14 14 14 13 13 13 13 13 13 13 13 12 12 12 12 12 12 12 12 12 12 12 12 12 13 13 12
11 12 11 15 17 16 17 20 21 21 19 20 20 13 13 15 15 15 15 14 14 14 14 13 13 13 13 13 13 13 13 12 12 12 12 12 12 11 11 12 12 12 12 12 12 12 12 12 13
11 10 13 12 14 15 17 17 20 20 20 18 18 17 16 15 15 15 15 14 14 13 13 13 13 13 13 12 12 12 12 11 11 11 11 11 11 11 11 11 12 12 12 12 12 12 12 12 12
10 11 13 12 12 12 15 16 19 19 17 15 17 18 15 14 14 15 15 14 14 13 12 12 12 12 12 12 12 11 11 11 10 10 10 10 10 10 11 11 11 11 11 11 11 12 12 12 12
10 11 12 10 10 12 13 14 16 17 17 16 14 15 14 14 14 14 14 14 14 13 13 12 12 12 12 12 11 11 10 10 10 10 10 10 10 9 10 11 11 11 11 11 11 11 11 11 11
10 12 11 10 10 9 12 12 13 16 18 18 18 17 15 14 14 14 14 13 13 13 12 12 12 11 11 11 11 10 10 10 10 10 10 10 10 10 10 11 11 11 11 11 10 11 11 10 10
11 12 12 11 11 11 11 12 12 15 17 19 17 16 15 14 13 13 13 13 13 13 12 12 12 11 11 11 11 10 10 11 11 10 11 11 11 11 11 11 11 11 10 10 10 10 10 10 10
12 12 11 12 11 11 10 12 11 14 16 17 16 15 14 13 13 13 13 13 13 13 12 12 12 11 11 11 11 11 11 11 11 11 11 11 11 11 11 11 11 10 10 10 10 10 10 10 10
13 12 9 9 12 12 12 11 12 14 15 15 15 14 14 13 13 13 13 13 13 13 12 12 11 11 11 11 11 10 10 11 11 12 12 12 12 11 11 11 11 10 10 10 10 10 10 10 10
11 12 11 10 10 9 11 12 13 15 16 14 14 14 13 13 13 13 13 13 13 12 12 11 11 11 11 11 10 10 10 11 11 11 11 11 11 11 11 11 10 10 10 10 10 10 10 10 10
10 10 11 10 10 9 10 11 13 15 14 15 14 14 14 13 13 13 12 12 12 12 12 11 11 10 10 10 10 10 10 10 11 11 11 11 11 10 10 10 10 10 10 10 9 9 9 10 10
8 9 10 11 10 9 10 10 12 13 15 14 14 14 14 13 13 12 12 11 11 11 11 11 10 10 10 10 10 9 9 10 10 11 11 10 10 10 10 10 10 9 9 9 9 9 8 8 9
11 11 10 12 10 10 10 11 12 14 16 14 14 14 14 13 13 12 11 11 11 11 11 10 10 10 10 9 9 9 10 10 10 10 10 10 10 10 9 9 9 9 9 9 8 8 8 8 8
9 9 9 12 11 11 11 11 13 14 15 15 14 13 14 13 13 12 11 11 10 10 11 10 10 10 10 9 9 10 10 9 10 10 10 9 9 9 9 9 9 8 8 8 8 7 7 7 6
10 10 10 12 11 11 11 11 12 14 15 15 15 16 14 14 13 12 11 11 10 10 10 10 10 10 10 9 9 9 9 9 9 9 9 9 9 9 8 8 8 8 8 7 7 7 6 6 6
9 11 11 12 11 11 12 11 13 13 14 14 15 14 13 13 13 12 11 10 10 10 10 10 10 10 9 9 9 9 10 9 9 9 9 9 8 8 8 8 7 7 7 7 7 6 5 5 5
10 10 10 12 11 11 12 11 13 14 14 14 14 14 13 13 13 12 11 11 10 10 9 9 9 9 8 8 8 8 8 9 9 9 8 8 8 7 7 7 7 7 7 6 6 6 5 4 4
11 10 9 8 7 7 11 11 13 14 16 15 14 14 13 12 12 12 11 10 9 9 9 9 9 8 8 8 8 8 8 9 8 8 8 7 7 7 7 7 6 6 6 6 5 5 4 3 3
10 7 8 7 7 8 11 12 14 15 16 17 14 14 12 12 11 11 11 10 9 9 8 8 8 8 8 8 8 8 8 8 8 8 7 7 7 7 6 6 6 6 5 5 4 4 3 3 2
7 7 7 8 7 7 10 11 13 15 15 17 16 14 12 11 10 11 11 10 9 9 8 8 8 8 8 8 8 7 7 8 8 7 7 6 6 6 6 6 5 5 5 4 3 3 2 1 1
8 7 10 8 10 9 11 12 13 12 12 12 14 12 11 10 10 10 10 10 9 9 8 8 8 8 8 7 7 7 7 7 7 6 6 6 6 6 5 5 5 4 4 3 2 2 1 0 0
11 10 8 6 8 11 10 12 13 11 12 11 12 12 10 10 9 9 10 9 9 8 8 8 8 8 7 7 7 7 7 6 6 6 6 6 6 5 5 4 4 3 3 2 1 1 0 -1 -1
8 9 10 8 9 9 8 10 12 12 12 10 11 11 9 9 8 8 9 9 9 8 8 7 7 7 7 7 6 6 6 6 6 6 5 5 5 5 4 4 3 3 2 2 1 0 -1 -1 -1
10 10 12 10 8 9 6 9 10 9 10 10 9 9 8 8 8 8 8 9 8 7 6 6 6 6 6 6 6 6 5 5 5 5 5 5 4 4 4 3 3 2 1 1 -0 -1 -1 -2 -2
Height
1535 1535 1534 1534 1543 1541 1538 1522 1505 1505 1505 1505 1504 1507 1521 1526 1530 1542 1542 1545 1548 1550 1553 1555 1556 1556 1556 1557 1557 1558 1559 1559 1559 1558 1558 1558 1557 1557 1556 1555 1555 1554 1554 1553 1553 1552 1551 1551 1550
1534 1535 1535 1533 1543 1546 1533 1507 1509 1504 1504 1504 1507 1513 1520 1533 1532 1536 1541 1546 1548 1550 1553 1554 1555 1556 1556 1556 1557 1558 1558 1558 1558 1558 1558 1558 1557 1557 1556 1556 1555 1555 1554 1554 1553 1552 1551 1551 1550
1533 1535 1536 1534 1538 1537 1523 1501 1501 1503 1502 1499 1510 1515 1523 1531 1534 1537 1541 1543 1548 1550 1552 1554 1555 1555 1555 1556 1557 1557 1558 1558 1558 1559 1559 1558 1558 1558 1557 1557 1556 1556 1556 1555 1555 1554 1553 1552 1551
1533 1535 1535 1534 1532 1516 1507 1505 1501 1500 1502 1502 1508 1520 1527 1530 1534 1537 1539 1543 1547 1550 1551 1553 1554 1554 1555 1556 1557 1557 1558 1558 1559 1559 1559 1559 1559 1559 1558 1558 1558 1558 1557 1557 1556 1555 1554 1553 1552
1530 1532 1534 1531 1524 1512 1504 1501 1497 1498 1501 1505 1508 1523 1528 1533 1536 1538 1539 1543 1546 1549 1551 1552 1553 1554 1555 1556 1557 1558 1558 1559 1560 1560 1560 1560 1560 1560 1560 1560 1560 1559 1559 1557 1556 1556 1555 1554 1553
1528 1530 1531 1530 1519 1506 1503 1502 1498 1498 1501 1506 1512 1520 1530 1533 1536 1539 1539 1543 1546 1548 1550 1551 1552 1554 1555 1556 1557 1558 1559 1559 1560 1561 1561 1562 1561 1561 1561 1561 1561 1561 1560 1559 1558 1556 1555 1554 1554
1522 1524 1525 1519 1515 1511 1503 1498 1495 1498 1501 1506 1511 1523 1529 1533 1537 1538 1539 1542 1544 1548 1549 1550 1552 1553 1554 1556 1557 1558 1560 1560 1561 1562 1562 1562 1563 1563 1562 1562 1562 1561 1560 1559 1558 1557 1556 1554 1553
1521 1522 1526 1517 1515 1515 1505 1499 1495 1495 1502 1506 1510 1518 1527 1528 1533 1537 1538 1540 1543 1546 1548 1550 1552 1553 1554 1556 1558 1559 1560 1561 1562 1563 1563 1563 1563 1563 1563 1563 1562 1561 1560 1559 1558 1557 1556 1555 1554
1519 1522 1514 1521 1520 1515 1507 1501 1498 1498 1498 1503 1508 1511 1517 1525 1531 1534 1536 1540 1542 1545 1547 1550 1551 1553 1555 1556 1558 1560 1561 1562 1563 1564 1564 1564 1564 1564 1564 1563 1562 1562 1561 1560 1559 1558 1557 1556 1555
1517 1515 1509 1513 1523 1520 1513 1506 1502 1500 1500 1506 1507 1512 1518 1522 1527 1531 1534 1538 1542 1543 1546 1549 1551 1553 1555 1557 1558 1560 1561 1562 1564 1564 1565 1566 1565 1565 1564 1563 1563 1562 1561 1561 1560 1559 1558 1557 1556
1512 1510 1506 1517 1512 1518 1514 1504 1504 1502 1504 1505 1505 1510 1518 1522 1526 1530 1533 1537 1539 1543 1545 1547 1550 1554 1555 1557 1558 1560 1562 1563 1564 1564 1566 1566 1566 1565 1564 1563 1563 1563 1562 1562 1561 1560 1559 1558 1557
1509 1505 1507 1512 1512 1514 1516 1513 1510 1506 1505 1505 1505 1508 1513 1519 1524 1527 1531 1534 1537 1541 1545 1548 1550 1553 1555 1557 1558 1560 1562 1563 1564 1565 1566 1566 1566 1566 1565 1564 1563 1563 1563 1563 1562 1561 1560 1560 1558
1502 1501 1501 1505 1510 1514 1517 1514 1515 1504 1504 1503 1505 1509 1512 1518 1524 1528 1530 1532 1535 1539 1543 1546 1550 1552 1555 1557 1559 1560 1561 1563 1564 1564 1565 1566 1566 1566 1565 1565 1565 1564 1564 1563 1563 1562 1561 1560 1559
1495 1495 1497 1498 1499 1511 1516 1511 1521 1505 1507 1506 1507 1509 1512 1516 1522 1525 1527 1529 1533 1537 1541 1545 1549 1552 1555 1557 1559 1559 1561 1563 1564 1565 1565 1566 1566 1566 1566 1566 1565 1565 1565 1564 1563 1562 1562 1561 1560
1491 1495 1497 1498 1501 1507 1515 1512 1511 1501 1511 1506 1506 1509 1512 1516 1519 1521 1523 1526 1530 1534 1538 1543 1547 1551 1554 1556 1557 1559 1560 1562 1564 1565 1566 1566 1567 1567 1567 1566 1566 1566 1565 1565 1565 1564 1563 1562 1560
1489 1488 1494 1492 1497 1503 1507 1501 1494 1504 1506 1506 1505 1508 1511 1513 1516 1519 1522 1524 1528 1531 1535 1541 1545 1549 1552 1554 1556 1558 1560 1561 1563 1565 1566 1566 1567 1567 1567 1567 1567 1567 1566 1566 1565 1563 1562 1561 1559
1492 1489 1488 1493 1491 1496 1499 1495 1492 1497 1503 1501 1501 1506 1509 1512 1514 1516 1519 1522 1525 1529 1532 1537 1542 1547 1550 1553 1555 1557 1559 1561 1563 1564 1565 1566 1567 1567 1567 1567 1567 1567 1567 1566 1565 1563 1562 1560 1558
1483 1481 1479 1481 1484 1491 1494 1493 1484 1489 1493 1493 1496 1502 1506 1507 1509 1512 1516 1520 1524 1527 1531 1536 1539 1544 1548 1551 1554 1556 1558 1560 1563 1564 1565 1566 1566 1567 1568 1567 1567 1567 1566 1565 1564 1564 1562 1560 1557
1476 1476 1478 1473 1476 1484 1485 1483 1483 1485 1483 1491 1492 1496 1500 1503 1508 1510 1514 1518 1522 1525 1528 1533 1536 1540 1544 1548 1550 1553 1555 1559 1561 1563 1564 1565 1566 1567 1567 1567 1567 1566 1565 1564 1563 1563 1561 1558 1554
1480 1484 1481 1470 1471 1475 1478 1479 1480 1475 1474 1476 1482 1488 1493 1499 1503 1506 1510 1515 1518 1521 1525 1529 1533 1537 1541 1546 1549 1552 1555 1558 1560 1561 1563 1565 1566 1566 1567 1566 1565 1565 1564 1563 1562 1560 1558 1557 1554
1475 1477 1476 1473 1472 1475 1475 1477 1476 1471 1475 1474 1474 1474 1480 1486 1492 1499 1504 1509 1514 1518 1522 1526 1530 1534 1538 1543 1547 1549 1553 1556 1558 1559 1562 1563 1565 1565 1565 1565 1564 1564 1563 1561 1560 1558 1556 1554 1553
1469 1465 1467 1469 1475 1480 1470 1473 1457 1463 1461 1466 1467 1471 1469 1474 1483 1491 1497 1504 1509 1515 1520 1523 1528 1532 1535 1539 1543 1546 1549 1552 1556 1558 1560 1562 1563 1564 1564 1564 1563 1562 1561 1560 1558 1556 1554 1552 1550
1455 1462 1466 1466 1469 1476 1468 1477 1451 1444 1452 1450 1452 1460 1457 1461 1470 1481 1490 1498 1505 1511 1516 1521 1525 1529 1532 1536 1541 1545 1548 1551 1554 1556 1558 1559 1560 1562 1562 1562 1561 1560 1558 1557 1556 1554 1552 1549 1548
1454 1463 1472 1473 1483 1487 1461 1463 1445 1435 1425 1435 1443 1450 1448 1455 1463 1475 1485 1493 1501 1507 1513 1517 1522 1526 1530 1533 1538 1542 1546 1548 1550 1553 1554 1556 1558 1559 1560 1559 1558 1556 1555 1553 1552 1550 1548 1547 1545
1453 1469 1474 1478 1481 1467 1450 1457 1428 1419 1415 1416 1425 1434 1438 1447 1457 1467 1477 1487 1495 1502 1507 1513 1519 1523 1527 1530 1534 1539 1543 1546 1548 1550 1551 1553 1555 1556 1557 1557 1555 1553 1551 1549 1548 1546 1545 1542 1540
1450 1458 1463 1463 1471 1465 1447 1446 1423 1410 1407 1407 1412 1421 1431 1443 1451 1459 1469 1480 1489 1496 1503 1509 1515 1520 1523 1527 1532 1536 1541 1543 1546 1547 1549 1551 1553 1554 1555 1554 1551 1549 1546 1545 1543 1542 1540 1538 1536
1446 1452 1438 1452 1446 1453 1437 1425 1413 1411 1409 1407 1410 1417 1426 1435 1445 1454 1465 1476 1484 1491 1498 1505 1512 1517 1521 1526 1530 1534 1538 1540 1543 1545 1547 1549 1550 1551 1551 1549 1547 1544 1542 1540 1539 1537 1534 1532 1531
1425 1435 1450 1460 1454 1437 1432 1422 1416 1415 1411 1410 1408 1412 1422 1433 1443 1451 1462 1471 1480 1488 1496 1503 1510 1514 1519 1524 1528 1532 1536 1538 1540 1542 1544 1546 1547 1547 1547 1545 1542 1539 1538 1535 1533 1531 1529 1526 1525
1426 1430 1433 1447 1445 1442 1447 1426 1402 1400 1399 1402 1403 1411 1417 1427 1438 1448 1459 1469 1477 1486 1494 1501 1507 1512 1516 1521 1525 1530 1534 1536 1538 1540 1541 1542 1543 1543 1542 1539 1537 1534 1532 1530 1527 1525 1522 1520 1518
1412 1414 1409 1423 1438 1431 1451 1429 1400 1400 1400 1403 1406 1413 1419 1427 1438 1447 1457 1466 1475 1482 1491 1498 1505 1510 1514 1519 1524 1528 1532 1534 1536 1537 1538 1539 1539 1538 1537 1534 1532 1529 1527 1524 1521 1519 1517 1514 1511
Wind_Speed
15 13 14 6 2 3 4 9 3 4 4 3 15 15 12 8 3 5 19 20 14 12 13 12 9 6 5 6 6 6 5 5 4 5 6 7 8 9 10 10 10 10 11 11 11 11 10 9 8
14 16 7 2 3 2 5 7 6 6 14 26 25 20 9 4 14 24 25 19 15 12 12 11 8 6 6 7 8 7 6 5 6 7 8 9 11 12 12 13 13 14 14 15 15 15 15 15 15
13 10 5 3 4 6 5 3 7 6 14 13 8 17 7 9 23 25 22 21 17 14 11 9 7 6 7 8 7 7 7 7 8 9 10 12 12 13 13 14 14 15 16 16 16 17 17 16 17
7 3 6 2 9 7 6 3 7 8 13 10 22 9 9 11 26 20 25 19 17 14 11 8 7 6 7 8 8 9 9 10 10 11 12 13 14 13 14 14 15 15 15 16 16 16 16 16 16
12 3 2 4 8 9 5 10 12 7 9 16 12 5 7 24 21 25 23 17 15 16 11 9 8 7 8 9 10 10 11 11 12 12 13 13 14 14 14 15 15 15 16 16 16 15 15 16 17
8 2 3 7 6 10 4 19 14 6 13 18 13 10 7 20 24 24 20 18 16 15 11 9 9 9 10 11 11 11 12 12 12 12 12 13 14 14 15 15 15 15 15 15 15 14 14 14 15
3 4 3 4 6 10 5 18 15 11 10 7 26 5 16 24 25 24 21 20 17 14 10 8 10 11 11 12 12 13 12 12 12 12 12 13 14 14 14 13 13 13 13 13 13 13 12 11 13
5 4 4 4 5 6 9 5 1 22 7 25 16 8 11 30 30 27 22 17 13 10 7 9 10 11 13 15 14 13 12 13 13 13 13 14 14 13 13 12 12 12 13 13 14 13 13 12 12
8 3 15 6 9 9 18 8 7 6 17 11 6 20 25 35 33 29 27 22 16 11 8 6 11 13 15 16 15 13 14 14 15 16 15 15 13 11 12 12 11 12 12 13 14 14 14 13 13
6 7 9 17 14 7 17 10 4 4 10 9 17 15 35 38 35 33 30 27 24 17 14 9 8 13 17 17 15 14 15 16 16 14 13 12 11 13 13 12 12 12 13 14 15 15 16 16 17
7 5 4 20 16 15 18 23 19 8 1 8 26 34 39 37 33 31 28 25 24 24 18 14 10 11 17 17 15 14 13 15 12 11 9 7 8 10 11 13 14 14 14 15 15 16 17 16 15
4 11 19 22 25 17 14 22 21 13 3 4 19 28 36 36 35 31 27 24 23 27 22 18 15 12 15 14 15 13 11 11 13 12 9 4 5 7 9 12 15 15 16 16 15 15 17 17 15
11 5 23 25 31 29 24 19 12 27 12 6 27 31 32 35 31 26 25 24 21 27 26 21 18 15 14 16 15 13 11 9 10 10 9 8 8 8 10 12 14 15 15 15 15 14 16 17 15
6 19 10 26 31 34 21 25 14 19 2 20 26 30 31 34 31 29 31 27 23 27 29 25 22 20 18 18 16 15 12 10 11 11 10 10 10 10 11 12 13 14 13 14 13 14 15 16 15
12 10 3 5 20 11 29 24 21 29 16 25 29 29 32 33 32 32 31 27 24 29 32 30 27 24 21 22 17 16 13 11 12 12 12 10 10 11 11 11 12 13 13 12 13 13 14 15 16
5 5 9 8 13 7 25 26 27 24 14 22 27 29 32 34 34 31 28 25 24 29 32 30 30 26 23 21 18 15 14 13 13 12 11 9 9 10 9 10 11 12 12 13 14 16 17 18 18
4 5 8 7 24 8 17 3 29 29 22 29 28 30 33 33 31 29 26 26 26 27 29 28 28 27 24 22 19 17 14 13 14 12 10 9 8 8 8 9 11 11 12 13 15 16 17 20 22
11 10 7 11 14 13 18 10 9 37 22 26 31 33 35 35 34 29 26 27 26 27 28 28 29 26 24 22 21 20 17 16 14 11 9 8 7 7 8 9 9 11 12 13 14 16 19 22 24
4 2 7 6 11 13 19 20 10 18 23 22 31 35 37 38 32 28 28 29 28 28 30 30 31 28 26 26 26 23 20 17 15 11 8 7 6 6 7 8 9 10 12 15 17 19 21 24 27
9 6 7 4 9 16 15 21 20 14 21 31 33 35 41 37 34 34 33 31 31 32 30 32 33 31 28 26 23 20 19 18 15 12 9 6 6 5 5 6 8 10 13 15 18 21 23 25 26
14 12 7 5 3 12 9 13 13 20 26 24 33 48 47 47 41 41 38 35 32 33 31 34 33 31 29 26 24 23 20 20 17 13 9 7 5 4 3 5 9 11 13 16 19 21 24 25 23
15 11 11 8 6 6 10 5 17 24 19 17 29 34 44 47 45 45 42 37 36 33 31 32 31 29 28 27 25 23 21 22 17 12 8 7 6 3 2 6 9 12 14 17 19 21 22 22 23
8 4 8 10 12 6 7 3 7 21 25 24 26 35 44 51 51 49 46 40 37 33 32 32 31 30 29 26 23 21 18 19 16 12 10 8 5 2 2 6 10 13 15 18 20 21 21 21 21
8 5 9 5 4 4 14 13 6 13 31 23 26 35 43 48 50 50 46 41 37 34 33 31 31 32 30 28 26 24 23 21 17 14 11 8 5 3 4 8 12 15 17 20 22 21 21 20 19
5 11 3 3 3 7 9 9 16 4 13 19 22 36 42 47 49 50 49 45 41 38 36 34 32 32 29 28 27 26 22 17 16 14 11 7 5 5 8 11 13 16 19 21 21 22 22 22 22
18 11 5 7 6 5 6 10 12 9 6 20 30 34 40 43 49 52 50 47 44 41 38 34 32 30 28 27 26 24 22 20 17 13 11 8 6 7 10 12 15 18 19 21 21 22 22 22 22
8 9 9 3 3 2 5 5 5 1 3 4 24 33 39 44 48 50 51 47 46 43 38 34 32 30 29 29 27 26 24 20 16 14 11 7 7 9 11 14 17 19 20 21 22 23 23 23 23
16 13 5 3 3 4 4 4 6 7 9 8 16 27 35 40 44 49 51 49 46 41 36 32 31 30 30 28 26 25 23 19 16 12 9 7 8 10 13 16 18 20 21 21 22 23 23 24 25
4 13 4 6 4 2 1 6 3 9 8 11 12 27 37 41 43 48 51 48 44 39 35 32 31 31 30 28 26 23 20 17 13 10 8 8 10 12 15 17 19 20 22 23 23 24 25 26 28
5 5 16 7 6 8 4 5 4 7 8 10 18 27 33 41 43 47 50 47 42 37 35 33 32 31 29 27 24 21 18 14 11 9 8 9 11 13 16 18 20 22 23 23 24 25 25 26 28
Wind_Direction
286 305 308 313 50 78 248 252 201 323 48 67 99 103 104 60 69 142 149 174 169 163 158 143 134 124 120 120 124 125 119 103 80 60 49 49 51 51 52 53 50 50 52 51 47 41 31 23 16
285 287 312 283 127 203 257 253 231 205 137 103 90 103 62 84 107 133 143 157 166 166 161 148 140 129 116 113 121 123 114 95 78 69 64 61 62 61 62 61 61 60 59 59 58 57 55 50 46
261 302 286 162 202 199 233 276 167 141 143 119 103 86 87 113 133 144 150 158 171 171 165 155 141 120 114 120 124 121 109 96 87 80 74 72 72 72 71 69 66 65 63 61 58 55 52 50 47
281 241 253 191 242 262 263 111 146 120 97 82 120 71 88 151 142 154 157 170 165 161 175 167 139 125 124 125 123 116 106 98 91 83 78 76 74 72 71 74 72 68 64 60 56 53 52 50 47
216 243 239 226 246 263 288 181 164 131 127 130 112 117 81 152 152 148 158 162 165 170 187 178 143 134 130 127 122 115 107 99 90 84 81 77 74 70 69 70 68 64 62 60 58 55 51 49 49
164 179 224 226 247 258 240 215 149 123 127 132 104 101 121 138 157 152 168 171 178 178 186 171 147 140 135 131 125 115 105 95 90 91 86 81 79 76 74 72 68 63 58 55 52 51 52 52 47
212 159 237 242 244 255 270 174 157 150 134 126 137 93 145 150 153 158 169 176 170 177 174 170 154 146 140 132 122 112 102 97 97 94 90 87 82 79 75 69 64 59 55 52 50 48 44 47 53
200 188 202 291 274 241 314 326 100 146 135 140 147 153 178 160 165 160 156 155 164 179 162 142 159 152 141 130 121 110 101 101 98 94 87 85 83 77 71 68 62 59 52 48 41 40 41 40 38
185 183 209 254 359 318 339 359 52 97 123 107 116 157 167 159 168 167 164 158 158 163 154 147 148 152 142 133 121 110 106 100 92 83 77 68 71 70 63 61 59 58 56 54 47 44 43 43 44
190 221 215 164 271 316 319 350 338 103 94 76 110 140 161 167 173 175 173 168 166 157 160 175 154 141 145 135 126 117 108 99 86 69 63 54 64 58 59 62 59 59 61 62 62 61 58 56 53
200 213 116 182 235 284 330 354 348 117 50 172 148 150 165 173 173 176 177 177 172 162 164 168 170 146 149 141 131 118 113 110 110 105 91 73 69 57 57 62 63 65 67 65 67 65 59 53 50
231 214 175 172 174 275 287 324 334 353 319 224 189 170 168 175 175 177 173 172 169 163 160 174 177 163 151 137 125 126 139 147 145 148 154 156 109 84 68 64 67 72 72 66 64 60 56 48 43
237 249 190 178 188 217 271 286 331 309 309 246 179 171 173 174 175 173 172 175 176 165 164 173 176 169 154 142 146 156 164 154 146 155 137 127 116 98 79 73 72 68 63 60 57 49 49 43 44
267 239 207 194 181 196 243 270 324 292 202 175 176 178 177 175 174 174 177 182 183 171 166 171 171 169 162 163 166 172 176 164 151 143 134 120 114 99 85 81 76 71 63 55 51 41 39 37 35
257 245 98 191 203 204 212 278 256 269 260 180 180 181 178 176 179 182 184 189 186 173 173 174 173 172 169 172 180 176 184 170 148 139 126 120 109 99 92 83 77 70 59 49 43 34 30 29 31
297 193 211 168 164 175 169 222 248 255 207 186 182 182 180 182 186 190 193 194 185 175 180 180 182 179 180 184 181 184 176 166 152 140 127 118 107 99 92 82 72 62 50 40 30 23 20 18 18
267 216 196 168 184 154 191 178 204 234 256 196 185 184 185 183 188 195 194 190 185 178 176 176 175 176 179 182 182 181 180 175 159 148 132 120 112 103 90 75 65 53 40 31 26 18 14 6 3
200 202 206 190 187 175 194 242 234 204 215 187 185 188 189 186 189 192 190 187 187 180 177 175 172 177 180 182 176 180 182 179 165 158 140 126 115 96 82 68 55 43 30 24 19 14 6 1 356
317 241 225 215 175 176 194 214 224 199 177 192 191 191 191 189 190 193 190 191 190 185 180 178 174 177 184 181 181 187 185 180 171 165 149 132 114 92 79 64 44 28 21 16 8 3 358 356 351
257 270 285 266 180 193 198 213 215 219 209 192 192 189 190 186 186 188 188 192 193 188 184 182 181 184 188 190 193 195 186 179 179 171 156 139 120 98 75 53 34 21 14 7 359 355 353 352 354
220 233 234 250 116 206 182 245 221 231 230 214 202 196 192 188 186 186 188 194 193 191 187 184 186 188 189 191 189 187 188 186 180 175 164 147 134 115 79 34 20 10 3 357 354 350 348 347 349
214 214 251 244 148 213 203 249 214 224 225 214 211 196 187 184 189 188 189 192 193 195 189 186 188 189 187 187 191 195 193 189 183 179 172 161 157 147 48 16 4 357 352 349 347 345 342 342 342
223 157 292 253 208 337 191 268 269 197 221 219 207 202 185 186 188 188 191 193 194 193 190 188 188 188 186 189 195 199 200 197 190 182 177 176 180 175 355 350 348 345 343 342 340 340 340 340 338
141 133 246 110 90 224 225 198 233 195 206 205 203 197 183 183 184 188 191 190 192 191 189 189 188 189 190 192 197 204 203 193 190 188 186 188 203 268 320 333 337 336 336 337 338 338 336 336 333
127 120 219 98 177 235 206 205 244 259 200 198 185 187 179 178 178 181 186 187 188 187 190 192 194 192 195 197 196 195 196 195 195 193 192 200 230 283 314 324 326 330 333 334 334 332 331 331 328
171 168 175 175 190 227 169 221 230 231 231 214 195 179 170 174 177 181 186 187 186 188 192 194 193 192 190 189 188 190 196 196 193 193 196 209 241 280 304 313 322 327 329 330 328 327 326 323 321
172 201 195 20 238 140 206 255 295 294 136 144 160 161 167 172 174 175 183 186 185 189 194 195 190 188 187 189 191 192 194 194 192 194 204 225 262 293 307 316 321 324 326 326 323 320 320 317 316
172 168 179 140 229 205 244 219 218 205 206 180 167 167 165 167 167 172 182 183 185 190 192 191 188 185 185 187 188 189 190 191 194 201 218 248 281 298 308 316 320 322 322 319 316 315 315 313 313
163 172 160 156 221 202 220 253 230 228 202 170 157 162 157 158 162 170 178 182 184 187 188 184 184 184 183 186 187 189 190 193 200 213 237 267 290 304 311 317 317 319 317 315 312 313 312 310 309
247 219 185 172 197 219 151 285 341 282 187 149 141 146 149 155 159 168 177 178 180 180 181 180 183 185 186 187 187 188 191 196 208 228 254 281 297 307 313 315 316 316 314 313 312 311 311 310 309